Location: Unspecified
(0.0000°N, 0.0000°E)
Time: 22:23:30
(UTC+00:00)

STARLINK-33889 - Visible Passes

Search period start: 20 June 2025 00:00
Search period end: 30 June 2025 00:00
Orbit: 443 x 445 km, 43.0° (Epoch: 20 June)

Date Brightness Start Highest point End Pass type
(mag) Time Alt. Az. Time Alt. Az. Time Alt. Az.
21 Jun 3.7 19:14:02 10° SSW 19:16:59 37° SSE 19:16:59 37° SSE visible
22 Jun 4.2 18:33:49 10° SSW 18:36:50 26° SE 18:39:50 10° ENE visible
22 Jun 6.1 20:12:31 10° W 20:14:44 16° NW 20:14:58 16° NW visible
23 Jun 5.7 19:31:16 10° W 19:34:06 23° NW 19:36:56 10° N visible
24 Jun 6.4 05:33:45 10° N 05:35:49 15° NE 05:37:54 10° E visible
24 Jun 5.0 18:50:11 10° WSW 18:53:24 34° NW 18:56:38 10° NNE visible
25 Jun 7.0 04:54:51 10° NE 04:55:04 10° NE 04:55:18 10° NE visible
27 Jun 3.3 05:07:47 10° NW 05:11:17 75° NE 05:14:48 10° SE visible
28 Jun 4.2 04:28:16 21° NNW 04:30:18 46° NE 04:33:43 10° ESE visible
29 Jun 6.3 03:52:08 11° ESE 03:52:08 11° ESE 03:52:23 10° ESE visible
29 Jun 5.0 05:25:43 12° WSW 05:27:08 14° SW 05:29:03 10° SSW visible
